RH
19 24 33 46 61 75 86 93 97 98 97 95 94 92 91 90 88 86 84 82 82 83 82 83 83 82 81 79 79 79 77 76 75 74 73 72 71 69 67 65 63 61 58 56 54 52 50 49 47 46 44 43 42 41 40 40 39 38 37 37 36 35 35 35 34 34 33 33 33 32 32 32 32 31 31 32 32 33 33 32 32 32 31 31 31 31
27 24 24 27 34 43 53 62 70 76 80 82 82 82 80 79 77 74 72 70 68 67 65 63 62 60 58 56 54 52 51 50 48 47 45 44 43 43 42 42 41 41 41 41 41 41 41 41 41 41 41 41 41 40 40 40 40 40 40 40 41 40 40 40 40 40 40 40 40 40 40 39 39 38 38 38 39 40 42 42 43 42 42 42 41 42
42 38 33 30 29 30 32 36 40 44 46 48 49 49 48 47 47 46 44 44 44 43 43 43 44 44 43 42 41 40 40 40 40 40 39 39 39 39 39 39 39 39 39 39 39 39 39 39 39 39 39 39 39 39 39 39 39 39 39 39 39 39 39 39 38 39 39 39 39 39 39 39 39 38 37 38 38 40 42 44 45 45 46 46 47 48
36 40 41 40 39 38 37 37 38 39 40 42 43 44 45 45 46 46 43 42 41 40 40 39 40 40 39 38 36 35 34 34 33 32 32 31 30 30 30 30 30 30 29 29 29 29 28 28 28 28 28 28 27 28 27 27 27 27 27 27 27 27 27 27 27 27 27 27 27 27 27 27 27 27 26 26 26 27 28 29 30 30 31 31 32 32
27 29 31 33 35 36 37 37 38 39 39 40 41 41 41 40 39 39 36 34 32 31 30 28 28 28 27 27 26 25 25 25 25 24 24 24 24 24 25 25 26 26 27 27 27 27 27 27 28 28 28 28 28 28 28 28 28 28 28 28 28 27 27 27 27 27 26 26 26 26 26 25 25 25 24 24 24 24 24 24 24 25 25 24 24 25
26 27 27 27 28 28 28 28 29 29 29 29 29 29 30 29 29 29 28 28 27 27 27 26 26 27 28 28 28 29 29 29 29 29 29 28 29 29 30 30 31 31 31 32 32 32 32 32 33 33 33 34 34 34 34 34 34 34 34 34 33 33 33 33 32 32 32 31 31 30 30 30 29 29 29 28 28 28 28 27 27 27 27 27 27 27
24 25 25 26 26 27 27 28 28 28 29 29 30 30 30 31 31 31 31 30 30 30 30 30 30 31 32 32 33 34 34 34 34 34 34 34 35 35 35 35 35 35 35 35 35 36 36 36 36 37 37 37 38 38 38 38 38 38 38 38 38 38 38 37 37 37 36 36 35 34 34 33 33 33 32 32 31 31 31 31 31 31 31 30 30 30
27 28 29 29 30 31 31 32 32 33 33 33 33 34 34 34 35 35 35 34 35 35 35 34 34 34 35 35 35 36 36 37 37 37 37 38 38 38 38 38 38 38 38 38 38 38 38 38 38 38 38 38 38 38 38 39 39 39 39 39 39 38 38 38 37 37 36 36 36 35 34 34 33 33 33 32 32 31 31 30 30 30 30 30 29 29
31 32 32 33 34 34 34 35 35 36 36 37 38 38 39 39 39 39 38 37 36 36 35 35 34 34 34 34 34 34 34 34 34 35 36 36 36 36 36 35 35 35 35 34 33 33 32 31 31 30 30 29 29 29 29 29 28 28 29 28 29 29 28 29 28 28 27 27 27 26 26 26 26 26 26 27 27 27 27 27 27 27 27 26 25 25
36 36 36 36 36 36 37 37 38 39 40 41 41 41 40 39 38 37 35 34 33 32 31 30 29 29 29 29 28 28 27 27 27 27 27 27 27 26 25 24 24 23 22 21 20 19 19 18 17 16 16 15 15 15 14 14 14 14 14 14 14 14 14 14 14 14 14 14 14 14 14 14 14 14 14 15 15 15 16 16 17 17 17 17 17 18
38 38 37 38 37 38 39 40 41 42 42 41 39 38 36 34 32 30 29 28 27 26 24 23 22 21 21 21 20 20 19 18 18 17 17 17 16 16 15 14 14 13 12 12 11 11 11 10 10 10 10 9 9 10 9 9 9 9 9 9 9 10 10 10 10 10 10 10 10 10 10 10 10 10 10 10 10 10 9 10 10 10 10 10 10 10
38 38 38 38 39 40 41 42 41 40 39 37 35 33 32 30 28 27 26 25 25 24 24 22 21 20 19 17 16 15 14 13 13 13 12 12 12 12 12 12 11 11 10 10 9 9 9 9 9 9 9 9 9 9 9 8 9 9 9 9 9 9 9 9 9 9 9 9 9 9 9 9 9 9 9 9 8 8 8 8 8 8 8 8 8 8
40 40 40 40 41 42 41 40 39 37 37 36 36 35 35 35 34 33 32 32 31 29 28 26 25 25 22 18 16 14 13 12 11 11 11 11 11 11 11 11 10 10 9 9 9 9 9 9 9 9 9 9 9 9 9 8 8 8 8 8 8 8 8 8 8 8 8 8 8 8 8 8 8 8 8 8 8 8 8 8 8 8 7 7 7 7
40 41 41 42 41 41 39 39 38 38 38 39 40 41 42 41 40 39 38 38 37 34 31 28 27 30 28 23 21 18 16 15 14 13 12 12 12 11 11 11 11 11 10 10 10 10 10 10 9 10 9 9 9 9 9 9 8 8 8 8 8 8 8 8 8 8 7 7 7 7 7 7 7 7 7 7 7 7 7 7 7 7 6 7 6 6
41 41 41 41 40 40 39 40 40 41 42 43 45 46 46 45 44 43 41 41 42 40 36 31 30 36 38 32 28 25 22 20 19 18 18 17 17 16 16 15 14 14 13 12 12 12 11 11 10 10 10 10 10 10 10 10 10 9 9 9 9 8 8 8 8 8 8 8 8 7 7 7 7 7 7 7 7 7 7 7 7 7 6 6 6 6
42 42 41 41 41 41 42 42 42 43 44 46 47 46 46 46 45 45 44 45 47 46 45 40 35 39 43 39 35 33 30 27 25 24 23 22 22 21 20 19 17 16 16 15 14 14 13 13 13 12 12 11 11 11 11 11 11 10 10 9 9 9 8 8 8 8 8 8 8 7 7 7 7 7 7 7 7 7 7 7 7 7 7 6 6 6
42 42 43 43 43 43 43 44 45 46 46 46 47 47 47 46 45 45 46 49 53 52 51 48 40 38 44 46 43 42 39 36 33 31 29 26 23 23 22 21 20 19 19 18 17 16 16 15 15 14 14 13 12 12 11 11 11 11 11 10 10 10 9 9 9 8 9 9 8 8 8 8 8 8 8 7 7 7 7 7 7 8 8 8 8 7
43 44 45 45 45 46 46 47 48 48 46 46 47 49 48 47 45 45 45 49 55 56 55 54 46 38 43 47 46 46 43 41 40 37 34 30 25 24 24 22 21 20 19 19 18 17 16 15 14 13 13 12 12 12 12 11 11 11 11 10 10 10 9 9 8 8 8 8 8 8 8 8 8 8 8 8 8 8 8 8 8 8 8 8 8 8
44 45 46 47 48 48 48 49 50 50 49 47 48 49 50 49 47 46 45 45 51 55 55 58 54 40 40 47 48 48 46 44 45 42 38 34 29 27 28 26 23 20 18 17 16 16 15 14 13 13 12 12 12 13 13 13 14 13 13 13 13 12 11 10 9 8 8 9 9 8 8 8 8 8 8 8 8 8 8 8 8 8 8 8 8 8
46 47 48 49 49 49 49 50 52 54 54 52 51 50 50 51 50 48 47 45 48 52 51 58 62 48 39 46 49 49 49 46 45 45 42 38 33 32 34 32 27 23 19 17 15 15 14 14 13 13 12 12 12 13 14 15 15 15 16 16 16 16 14 12 11 10 9 10 10 10 9 9 9 8 8 8 8 8 8 8 7 8 7 7 7 7
50 51 51 51 52 52 53 53 54 55 57 57 56 55 53 52 52 51 50 47 48 52 50 54 65 56 42 45 51 51 52 51 49 48 47 43 38 38 40 37 31 26 22 20 17 15 14 13 13 12 12 12 12 12 13 14 15 16 16 17 18 18 17 16 14 12 11 11 11 11 10 10 9 9 8 8 8 8 8 7 7 7 7 7 7 6
53 54 55 56 58 59 60 60 59 58 60 62 63 64 60 57 56 54 54 53 51 55 54 54 64 63 49 47 54 55 55 56 56 53 51 48 43 42 44 40 32 27 24 20 18 16 14 13 12 12 11 11 11 11 12 13 14 15 16 18 19 19 18 17 16 14 12 11 11 11 11 10 10 9 9 8 8 8 7 7 6 6 6 6 6 6
57 58 60 63 65 66 66 66 66 64 64 67 69 70 68 64 61 58 55 56 56 59 60 57 63 67 56 49 55 57 56 59 61 57 54 52 48 45 47 43 35 29 25 20 18 16 14 13 12 11 11 10 11 11 12 13 14 15 16 16 17 17 17 16 15 14 12 11 11 11 11 10 10 9 9 8 8 8 7 7 6 6 6 6 6 6
64 64 64 65 67 70 70 69 71 71 68 67 67 69 70 69 68 64 58 57 58 61 63 59 62 68 60 52 56 57 55 58 60 58 54 51 48 48 49 46 39 34 29 24 21 17 15 13 11 10 10 10 10 10 11 11 12 12 13 13 13 13 13 13 12 12 12 11 11 10 10 10 10 9 9 8 8 8 7 7 6 6 6 6 5 5
66 67 66 64 65 71 75 73 74 75 71 67 66 68 71 71 70 68 62 57 56 61 66 62 61 68 64 56 59 59 54 58 62 60 56 51 48 51 54 52 46 40 34 28 23 18 14 11 10 9 8 8 8 9 8 9 9 9 9 10 10 11 11 11 11 11 11 10 10 9 9 8 9 8 8 8 7 7 7 6 6 6 6 6 6 5
64 65 65 63 60 64 72 74 73 74 73 71 70 69 70 70 70 70 66 61 56 58 68 69 64 71 70 62 64 65 59 61 66 65 62 56 53 56 60 59 54 49 43 36 29 23 17 14 11 10 9 9 8 8 7 7 7 7 7 8 8 9 9 9 9 9 9 9 8 8 7 7 7 7 7 7 7 6 6 6 6 6 6 6 6 5
63 65 67 69 64 60 68 74 73 74 73 71 71 71 70 69 70 73 73 69 62 59 70 77 72 72 72 65 65 67 64 65 69 70 69 63 59 63 68 68 66 62 57 51 43 34 25 20 15 12 11 10 10 9 8 8 7 7 7 7 7 7 7 7 7 7 7 7 7 6 6 6 6 6 6 6 6 6 6 6 6 6 6 6 5 5
72 73 76 82 77 65 69 78 79 78 75 72 72 73 73 70 70 76 81 81 74 66 71 82 82 78 73 67 69 72 69 69 72 74 73 67 64 70 75 75 75 72 68 62 53 41 30 23 17 13 12 12 12 11 11 9 9 8 7 7 7 6 6 6 5 5 5 5 6 5 6 6 5 5 6 6 6 6 5 5 5 5 5 5 5 5
80 80 82 92 90 73 69 80 85 84 81 74 70 72 76 75 74 80 89 91 83 74 76 82 86 86 80 73 75 78 74 71 74 78 77 70 70 75 79 79 79 76 70 63 52 41 31 24 18 14 13 13 14 14 14 12 11 10 9 8 7 6 6 5 5 5 5 5 5 5 5 5 5 5 5 5 5 5 5 5 5 5 5 5 5 5
78 79 79 89 97 83 72 81 91 91 87 80 75 79 85 84 82 85 93 98 91 80 77 79 82 89 88 80 77 78 75 74 78 83 80 73 74 79 82 82 79 73 66 58 48 40 33 25 19 16 14 15 16 15 15 14 12 11 10 8 7 6 6 6 5 5 5 5 5 5 5 5 5 5 5 5 5 5 5 5 5 5 5 5 5 5
73 74 72 79 91 85 75 83 94 95 91 82 77 86 94 90 88 91 98 104 95 77 73 80 85 91 90 82 78 79 79 79 84 87 82 77 79 82 81 80 78 72 66 60 52 44 36 27 20 16 15 15 16 15 14 13 11 10 8 7 7 6 6 6 6 5 5 5 5 5 5 5 4 5 5 5 5 5 5 5 5 5 5 5 5 5
69 71 69 70 79 82 77 81 93 96 92 82 76 87 96 91 92 99 103 106 95 76 75 86 90 89 85 80 79 82 82 82 88 91 85 80 81 81 78 78 79 77 73 65 56 45 35 25 17 14 14 14 14 13 12 10 9 8 7 6 6 5 5 5 5 5 5 5 5 4 4 4 4 4 5 4 5 5 5 5 5 5 5 5 5 5
69 70 69 65 70 78 77 79 88 93 89 81 77 87 92 87 89 99 104 107 99 83 81 89 90 88 86 84 83 82 80 84 92 93 84 77 77 77 79 83 83 82 77 66 53 40 28 19 15 13 13 13 12 11 9 8 7 7 6 6 6 6 5 5 5 5 5 4 5 5 4 4 4 4 5 5 4 5 5 4 5 4 4 5 4 5
67 68 68 63 63 72 77 80 88 95 92 83 80 86 85 79 83 92 102 111 104 89 88 94 96 97 96 94 90 84 81 86 93 91 80 76 78 78 82 88 88 84 76 61 46 33 22 15 12 12 12 11 11 11 9 8 7 7 6 6 6 5 5 5 5 5 5 5 4 5 4 4 5 4 4 5 4 4 4 4 4 4 4 4 4 4
64 66 67 65 62 68 76 81 86 94 95 87 83 85 81 79 84 89 101 113 105 92 94 101 104 106 103 100 96 88 81 83 90 90 82 82 87 88 89 92 89 82 69 51 35 23 16 12 11 11 12 12 11 11 9 8 7 6 6 6 5 5 5 5 5 4 5 5 4 5 5 4 5 5 4 5 4 4 4 4 4 4 4 4 4 5
61 63 65 67 67 69 77 83 84 87 89 84 82 83 80 80 82 81 93 110 105 94 99 104 106 107 104 100 95 87 78 78 89 97 94 93 97 95 93 91 85 75 60 42 29 20 14 12 12 12 12 11 11 10 8 7 7 6 6 5 5 5 5 4 5 4 4 5 4 5 5 4 5 4 4 4 4 4 4 4 4 4 4 5 4 4
57 58 60 63 66 67 72 79 81 83 84 81 80 81 78 78 79 76 86 104 103 95 98 101 101 102 99 94 89 82 76 79 92 103 103 101 100 95 92 89 81 70 57 42 30 21 15 13 13 12 12 10 9 9 7 7 7 6 6 5 5 5 5 5 5 4 4 4 4 4 4 4 4 4 4 4 4 4 4 4 4 4 4 5 5 5
56 57 58 59 62 62 63 67 71 73 74 73 73 74 73 76 79 77 82 95 97 93 94 94 94 93 89 85 83 82 82 82 89 97 96 95 94 90 87 84 77 68 56 43 31 20 14 13 13 11 11 9 8 8 7 7 7 6 6 5 5 5 5 5 4 4 4 4 4 4 4 4 4 4 4 4 4 4 4 4 4 5 4 5 5 5
56 57 58 59 61 62 62 65 67 66 66 66 67 69 70 74 76 74 76 82 86 87 86 86 86 85 84 84 85 87 87 82 82 86 85 83 83 81 79 76 71 63 53 40 27 18 13 12 12 11 10 9 7 7 7 7 6 6 6 5 5 5 5 5 5 4 4 4 4 4 4 4 4 4 4 4 4 4 4 4 5 5 5 5 5 5
56 57 57 58 61 62 63 66 68 67 66 64 62 62 62 63 66 67 69 73 78 82 84 83 83 86 88 90 90 91 89 84 81 81 79 76 77 78 78 75 70 62 50 36 23 15 12 12 11 11 10 9 8 7 7 7 6 6 5 5 5 5 5 5 5 4 4 4 4 4 4 4 4 4 4 4 4 4 4 4 5 5 5 5 5 5
58 59 57 56 58 60 61 61 63 65 66 65 63 60 56 54 54 57 61 66 71 81 91 94 93 94 95 94 93 92 91 89 86 82 81 80 81 83 84 80 74 65 50 34 21 14 13 13 13 12 10 8 7 7 7 7 6 6 6 5 5 5 5 5 5 5 5 5 4 5 4 4 4 4 4 4 4 5 4 4 5 5 5 5 5 5
63 64 65 62 60 62 62 60 60 62 63 66 68 66 62 58 53 50 52 58 65 76 89 95 96 97 99 98 96 94 91 90 88 87 90 91 90 90 89 83 75 63 46 32 21 15 14 14 13 12 10 8 7 7 7 6 6 6 5 5 5 5 5 5 5 5 5 5 5 4 4 4 4 4 4 4 4 5 4 4 5 5 5 5 5 5
70 71 74 72 68 70 70 68 68 67 66 70 76 78 76 69 58 50 46 48 54 62 71 80 85 90 93 94 93 92 91 90 90 92 97 99 98 96 93 86 73 58 43 30 21 15 14 14 13 11 9 8 7 7 7 6 6 6 5 5 5 5 5 5 5 5 5 5 5 5 4 4 4 4 4 4 4 4 4 4 5 5 5 5 5 5
77 79 83 82 78 82 84 82 83 81 77 79 85 90 90 82 68 55 45 38 38 41 48 60 70 76 80 84 88 91 92 92 93 94 98 101 102 99 94 84 70 55 42 29 19 14 14 13 12 11 9 7 7 7 6 6 6 6 5 5 5 5 5 5 5 5 5 5 5 5 4 4 5 4 4 4 4 4 4 4 5 5 5 5 5 5
80 83 90 91 87 91 94 91 92 93 89 89 92 95 96 91 76 60 47 39 37 37 38 42 51 58 65 75 85 92 94 94 94 94 96 101 103 99 91 81 68 53 39 26 17 13 14 13 12 11 9 7 7 7 6 6 6 6 6 5 5 5 5 5 5 5 5 5 5 5 5 5 5 4 4 5 4 4 4 4 5 5 5 5 5 5
81 84 91 94 90 91 94 93 94 97 95 95 99 100 100 96 83 65 52 45 44 46 43 40 40 45 54 66 80 90 94 95 94 94 95 99 101 97 89 81 67 50 35 23 15 13 14 13 12 10 8 7 8 7 6 6 6 6 6 5 6 6 5 5 6 5 6 5 5 5 5 5 5 5 5 5 4 4 4 4 4 5 4 5 5 5
83 85 90 96 94 92 94 95 95 99 97 95 99 103 103 102 95 78 61 50 48 49 50 47 45 45 50 61 74 85 92 95 95 94 95 98 99 95 89 78 62 44 31 21 14 13 14 13 11 10 8 7 8 7 6 6 6 6 6 6 6 6 6 6 6 6 6 6 6 6 5 5 5 5 5 5 5 5 5 5 4 5 5 5 5 5
85 88 90 96 98 95 96 96 95 98 99 98 100 103 105 107 104 86 62 49 48 49 50 52 52 52 54 60 70 82 93 98 98 96 97 98 97 94 87 73 54 39 29 19 13 13 14 12 11 10 8 8 8 7 6 6 6 6 6 6 6 6 6 6 6 6 6 6 6 6 6 5 5 5 5 5 5 5 5 5 5 5 5 5 5 5
87 91 91 95 99 98 98 98 95 96 101 102 102 104 104 106 105 87 60 46 47 49 50 53 54 54 53 56 65 78 90 96 97 97 98 98 96 91 82 66 48 36 27 17 13 14 13 12 11 9 8 8 8 7 7 6 6 7 7 6 7 7 7 7 7 7 7 7 6 6 6 6 5 5 5 5 5 5 5 5 5 5 5 5 5 5
90 94 95 96 100 101 101 100 96 94 97 100 102 104 104 106 104 87 59 45 46 49 50 53 53 52 51 52 58 69 81 88 93 96 98 98 94 87 74 58 44 34 25 16 14 14 13 12 11 9 8 8 8 8 7 6 6 7 7 6 7 7 7 7 7 7 7 7 7 6 6 6 6 5 5 5 5 5 5 5 5 5 5 5 4 5
95 98 99 99 101 101 101 101 98 95 96 99 103 104 103 106 105 87 59 44 46 50 50 51 52 51 51 51 53 61 72 81 89 95 98 97 91 81 67 51 39 32 23 15 14 15 14 13 12 9 8 9 9 8 7 7 7 7 7 6 7 7 8 8 7 7 7 7 7 7 6 6 6 6 6 5 5 5 5 5 5 5 5 5 5 5
Wind_Speed
60 69 77 82 86 88 89 91 92 94 95 96 97 98 99 100 102 104 105 105 105 106 107 109 110 112 113 114 115 116 117 118 119 120 121 121 122 122 123 123 124 124 124 125 125 125 126 126 127 127 128 128 128 129 129 130 130 131 131 132 133 133 134 134 134 135 135 136 136 137 137 138 138 139 139 139 140 140 141 141 142 142 142 143 143 143
48 55 63 71 77 82 85 87 89 91 92 93 94 96 97 98 99 101 102 102 102 102 103 105 106 107 108 109 110 111 111 112 113 113 114 114 114 114 115 115 116 116 117 117 118 118 119 120 120 121 122 122 123 124 124 125 126 126 127 128 129 130 130 131 131 132 133 133 134 134 135 135 136 136 136 136 137 137 138 139 139 140 140 140 140 140
45 46 50 56 63 68 73 77 79 82 84 85 87 88 89 90 91 93 93 94 94 94 94 95 97 98 100 101 102 102 102 103 104 105 105 106 106 107 107 108 109 110 110 111 112 112 113 114 115 116 117 117 118 119 120 121 122 123 124 125 126 127 127 128 129 130 130 131 132 132 133 134 134 135 135 135 135 136 136 137 138 138 139 139 139 139
44 45 47 49 53 56 60 64 67 70 73 75 77 78 80 81 82 84 85 86 86 86 86 87 88 90 91 93 93 94 94 95 96 97 97 98 99 99 100 101 102 103 104 105 106 107 108 109 110 111 112 113 114 115 116 117 118 119 120 121 122 123 124 125 126 127 127 128 129 130 131 131 132 132 133 133 133 133 134 134 135 136 136 137 137 137
40 42 44 46 49 51 53 56 58 61 63 65 67 69 71 72 73 75 76 77 78 78 78 79 80 81 84 86 86 87 88 89 91 92 92 93 94 95 96 97 99 100 101 103 104 105 106 107 108 110 111 112 113 114 115 116 117 118 120 120 121 123 123 124 125 126 127 128 128 129 130 131 131 132 132 133 133 133 133 134 134 135 135 135 135 135
35 37 39 41 43 45 47 49 51 53 55 57 58 60 62 63 65 67 69 70 72 73 74 75 75 76 80 82 84 85 87 88 90 91 92 93 94 95 96 97 98 100 101 102 104 105 107 108 109 110 111 112 114 115 116 117 119 120 121 122 123 124 125 126 127 128 128 129 130 130 131 132 132 133 133 134 134 134 134 135 135 136 136 137 136 136
33 34 36 37 39 41 42 44 46 48 50 52 54 56 57 60 62 64 66 68 70 72 73 75 74 75 78 81 82 84 86 88 90 91 92 93 95 96 98 99 100 101 102 104 105 106 108 109 110 111 113 114 115 117 118 119 120 121 123 124 125 126 127 128 129 130 131 131 132 133 133 134 134 135 135 135 136 136 136 136 136 137 138 138 138 138
33 34 35 36 38 39 41 43 45 47 49 51 53 55 57 59 62 64 66 68 70 72 74 76 75 76 79 81 82 85 87 88 90 92 94 96 97 98 100 101 102 104 105 106 107 108 110 111 112 113 114 116 117 118 120 121 122 123 125 126 127 128 129 130 131 132 133 134 134 135 136 136 137 137 138 138 138 138 138 138 139 139 140 139 139 139
34 35 36 37 38 40 41 43 45 47 49 51 53 56 58 60 62 65 67 69 70 72 74 76 77 77 80 82 83 84 86 88 89 91 93 95 97 98 99 101 102 103 104 106 107 108 109 110 111 112 114 115 116 117 118 120 121 122 123 124 126 127 128 129 131 132 133 134 134 135 136 137 137 138 138 139 140 140 140 140 141 141 142 142 141 141
36 37 38 39 40 41 42 44 46 48 50 52 54 56 58 60 62 64 66 67 68 69 71 73 73 73 75 78 79 80 81 83 84 86 88 90 92 93 95 96 97 98 99 100 102 103 104 105 106 107 108 110 111 112 113 114 115 116 117 119 120 121 122 124 125 127 128 129 130 131 132 133 134 135 135 136 137 138 138 139 140 141 141 142 141 141
36 37 38 39 40 42 43 44 46 48 50 52 54 55 56 57 58 59 60 62 63 64 65 67 67 67 68 71 73 74 75 76 78 79 80 82 84 86 88 89 90 91 92 93 95 96 97 99 100 101 102 103 105 106 107 108 109 110 111 112 114 115 116 118 119 120 122 123 124 126 127 128 129 130 131 132 132 133 133 134 135 136 137 137 138 138
37 37 38 39 40 41 42 43 45 46 48 50 51 53 54 55 56 58 59 60 61 62 63 64 64 66 67 67 68 70 70 72 73 74 75 76 78 80 81 83 84 85 86 87 89 90 91 92 94 95 96 97 99 100 101 102 103 105 106 107 108 110 111 113 114 115 117 118 119 121 122 123 124 125 126 127 128 129 129 130 131 132 132 133 133 133
38 39 39 40 40 41 41 42 43 44 46 48 50 52 55 57 58 59 60 61 62 61 61 61 60 63 67 66 65 66 66 68 70 70 71 71 72 74 76 77 79 80 81 82 83 85 86 88 89 90 92 93 94 96 97 99 100 101 102 103 104 106 107 109 110 112 113 114 116 117 118 120 121 121 122 123 124 125 126 127 128 129 129 130 130 131
38 39 40 40 40 41 41 42 43 45 46 48 50 52 54 55 56 57 58 58 60 61 60 59 56 59 64 64 63 64 64 65 67 67 68 68 69 70 72 73 75 76 77 78 79 81 82 84 85 86 88 89 91 92 94 96 97 98 99 100 101 102 104 105 106 108 110 111 112 113 115 116 117 118 119 119 120 121 122 123 124 125 126 127 127 128
38 38 38 39 39 40 41 43 44 45 46 46 48 49 51 52 54 55 56 56 57 59 60 59 56 55 59 60 60 61 62 62 63 64 64 65 65 67 68 70 71 72 73 74 75 77 78 80 81 83 84 86 87 89 91 93 95 95 96 97 98 99 101 101 102 104 106 107 108 109 110 112 114 115 116 116 117 118 118 119 120 121 122 123 124 124
37 37 38 38 39 40 41 43 44 44 45 46 47 48 49 50 52 54 56 55 55 56 58 59 56 52 54 57 57 57 58 58 59 59 59 60 60 62 64 66 68 69 70 71 72 73 75 76 78 79 81 83 84 85 87 90 92 93 94 95 96 97 99 99 99 100 102 103 104 105 106 108 109 111 112 112 113 114 115 116 117 118 119 120 121 122
37 38 39 40 40 42 43 44 45 46 46 47 48 49 50 51 51 52 54 56 56 56 57 59 58 51 50 54 55 55 55 55 56 56 56 56 56 57 60 62 64 65 66 68 69 70 71 72 74 75 77 79 80 82 84 86 88 89 91 93 94 95 96 97 97 97 98 100 101 102 103 104 105 106 107 108 109 110 111 112 112 114 115 117 118 119
38 39 40 42 43 44 45 46 47 48 49 49 49 51 51 52 52 52 52 54 55 56 56 60 62 54 48 51 53 54 54 54 55 55 54 55 54 54 57 59 61 62 63 64 65 67 67 68 70 71 73 75 76 78 80 83 85 87 88 90 92 93 94 95 95 95 95 96 98 99 100 101 102 102 103 104 105 106 107 108 109 110 111 112 114 115
41 41 43 44 45 46 47 48 50 51 52 52 52 52 53 54 54 54 53 53 54 55 55 59 65 60 51 51 54 55 56 55 56 56 55 54 54 53 55 58 59 60 61 62 63 64 66 67 68 69 70 72 73 74 76 78 81 83 85 88 90 92 94 95 96 95 93 93 95 97 98 99 100 100 100 100 101 103 104 105 106 107 108 109 110 112
43 44 45 46 47 48 49 50 51 53 54 56 56 55 55 55 56 56 56 56 55 56 55 56 64 66 57 54 57 59 59 59 59 59 58 57 56 55 57 59 60 61 61 62 63 64 66 66 67 68 68 69 70 71 73 74 76 78 80 82 85 89 92 95 97 96 94 92 94 96 97 99 99 99 99 99 99 101 102 103 104 104 105 106 107 108
44 46 47 48 49 50 51 52 53 53 54 57 58 58 57 57 57 57 58 59 59 60 58 56 62 68 63 59 61 63 63 64 63 63 62 61 60 59 61 63 63 63 63 64 65 66 67 67 68 68 68 68 69 70 71 72 74 75 77 78 81 84 87 92 95 96 94 92 93 95 96 98 99 99 99 99 99 100 101 102 102 103 103 104 105 105
46 48 49 51 52 53 54 55 55 55 55 57 59 61 62 60 60 59 58 60 60 61 61 58 61 69 69 64 65 66 66 67 68 67 65 65 64 63 64 66 66 66 66 67 67 68 69 70 70 71 71 70 70 70 71 72 73 74 75 77 78 80 84 88 92 94 94 92 92 94 95 97 98 99 99 99 99 100 101 101 101 102 102 102 103 103
49 49 50 52 54 55 55 56 58 58 57 57 59 61 64 64 64 62 60 60 61 62 63 61 61 68 72 69 68 69 69 70 71 70 69 68 67 66 67 69 69 70 70 70 71 72 72 73 74 74 74 74 73 73 73 73 73 73 74 75 77 79 81 85 88 92 93 92 92 93 94 95 97 98 99 99 99 100 100 100 101 101 101 101 101 102
50 51 52 53 54 56 57 57 58 59 59 58 58 59 63 65 67 67 65 62 61 63 65 64 61 66 72 71 70 72 72 72 74 74 73 71 70 70 71 73 73 74 75 75 76 76 76 76 76 76 76 76 75 75 74 74 73 72 73 74 75 77 79 82 85 88 90 91 91 93 93 94 95 96 98 99 99 100 100 100 100 99 100 100 100 100
51 52 53 53 53 55 57 58 58 60 61 60 58 58 60 63 66 67 67 64 61 61 65 66 62 64 71 73 73 74 75 75 77 78 78 76 74 74 75 77 78 79 79 80 80 80 80 80 79 79 78 77 76 76 75 74 73 72 72 73 74 76 78 80 82 84 87 89 91 92 93 93 93 95 96 97 98 98 98 98 98 98 98 98 98 98
52 53 55 56 54 53 56 58 58 59 61 61 60 59 58 61 64 66 68 67 63 60 63 68 65 64 69 72 74 76 78 78 80 82 83 82 80 79 80 81 83 84 84 85 85 85 85 85 84 84 83 82 80 79 77 76 74 73 73 74 75 76 78 80 81 83 85 87 89 90 91 91 92 93 94 95 95 95 96 96 96 96 96 96 96 96
53 54 56 58 58 55 55 59 60 60 61 61 61 61 60 60 62 65 69 69 67 62 62 68 70 67 69 71 73 76 78 80 82 84 85 86 84 83 84 85 87 88 90 90 91 91 91 90 90 89 88 87 86 85 83 81 79 78 77 77 77 77 78 79 80 81 83 85 86 87 88 88 89 89 90 91 91 92 92 93 93 93 93 93 93 94
55 56 57 60 62 59 56 59 61 62 62 62 61 61 62 62 62 65 69 71 71 67 64 66 70 72 73 73 74 77 79 81 83 85 87 87 87 87 87 88 90 91 93 94 95 95 95 94 94 93 92 92 91 90 89 87 86 84 83 82 81 80 80 80 80 80 80 81 82 83 83 84 85 85 85 86 86 87 88 88 89 89 89 90 90 90
56 57 58 60 65 64 60 59 62 63 64 64 62 62 62 64 64 65 69 72 73 71 68 66 68 71 74 75 76 78 80 82 84 86 89 90 89 89 90 91 92 93 95 96 97 97 98 97 97 96 96 95 94 93 93 92 91 90 89 87 86 84 83 82 80 80 80 79 79 79 79 80 81 81 81 82 82 83 83 83 84 85 86 86 86 86
57 58 57 58 63 66 64 61 63 64 65 65 64 64 64 65 65 66 69 72 73 72 70 69 68 69 73 75 76 78 81 84 86 88 90 91 91 92 92 93 93 94 96 97 98 99 100 100 100 99 98 97 96 94 93 92 92 91 90 89 87 85 83 82 80 80 79 79 78 78 77 78 78 79 79 79 79 79 79 80 81 81 82 82 82 83
57 58 58 57 59 64 64 61 62 64 65 65 63 63 64 65 65 66 69 73 75 73 70 70 70 70 71 74 76 79 82 85 87 90 92 92 92 92 93 93 95 96 98 100 101 102 102 101 100 99 98 96 94 93 92 91 91 90 88 87 85 84 82 80 79 79 78 78 78 77 76 77 77 77 77 77 77 77 77 77 78 78 78 79 79 80
57 57 57 56 57 61 62 60 61 63 65 65 62 61 63 65 65 66 70 74 77 75 72 72 72 72 73 75 76 78 81 84 87 90 93 93 92 93 94 95 97 99 101 102 103 103 102 101 99 98 96 94 92 91 90 90 90 89 87 86 84 83 81 80 79 79 79 78 77 77 76 76 75 75 75 75 75 75 76 76 76 76 76 76 77 77
57 57 57 57 56 58 60 59 59 62 64 64 62 61 62 63 64 66 69 74 77 77 74 73 73 73 75 77 78 78 80 83 86 90 93 93 94 94 96 98 100 102 103 104 104 103 102 100 99 96 94 92 91 90 91 91 91 89 88 86 84 83 81 80 79 79 78 77 77 77 76 75 74 73 73 73 73 74 74 74 74 74 74 74 74 74
58 58 58 58 56 56 58 58 58 61 64 63 61 61 62 63 64 66 69 73 76 75 74 73 74 75 76 78 80 80 81 83 86 91 94 95 96 97 99 100 102 103 104 104 104 103 102 100 98 96 95 94 94 94 93 93 92 90 88 86 84 82 81 80 79 78 78 77 76 76 75 74 73 72 71 71 71 72 73 73 72 72 72 72 72 72
59 59 59 59 58 56 57 57 57 59 63 64 62 62 63 64 64 64 66 71 75 73 72 73 73 75 77 79 81 82 82 83 86 92 95 97 98 100 101 102 103 104 104 104 104 103 103 101 100 98 97 96 95 94 93 92 90 88 87 85 84 82 81 79 79 78 77 76 75 74 73 73 72 72 71 70 70 70 71 70 70 70 69 69 69 70
62 61 61 61 60 58 58 58 57 57 60 63 63 63 64 64 63 61 61 68 73 72 71 71 72 74 76 78 81 83 83 83 86 92 96 97 99 100 101 102 104 105 106 106 106 106 105 104 102 100 97 95 94 93 92 90 88 86 86 85 83 82 81 79 78 77 75 74 73 72 71 71 71 71 70 70 69 69 69 68 68 67 67 67 67 68
64 64 64 64 63 61 59 58 58 57 59 60 60 61 62 62 62 62 60 64 70 71 71 71 72 74 77 79 81 83 84 84 85 89 93 95 97 99 100 102 104 106 108 109 109 108 107 105 102 99 97 95 94 93 91 89 87 86 85 85 83 82 81 79 78 76 74 72 71 70 70 69 69 69 69 68 68 67 67 66 66 65 65 65 65 66
67 68 68 67 67 66 63 62 61 60 60 61 61 62 63 63 64 64 63 65 68 70 70 71 73 75 77 80 82 84 86 85 85 87 90 92 95 97 99 102 105 107 109 110 110 108 107 105 101 98 96 95 93 92 90 88 87 86 85 84 83 81 80 79 77 76 74 72 70 69 68 68 68 67 67 66 66 65 65 64 64 63 63 63 64 64
71 71 71 71 71 71 69 69 69 68 67 67 67 68 68 67 67 67 65 65 68 70 71 71 73 76 78 81 83 86 88 88 86 87 89 91 94 98 101 103 106 107 109 110 109 108 107 104 101 98 97 96 95 93 90 88 86 85 84 83 82 80 79 77 76 74 73 72 70 69 67 67 66 65 65 64 64 63 63 62 62 61 61 62 62 63
73 74 74 74 75 75 74 74 76 76 76 75 75 74 73 71 71 71 69 68 68 70 72 74 75 77 80 82 84 86 88 90 90 91 92 94 97 100 104 106 108 110 111 110 109 108 106 104 102 100 99 97 95 92 90 88 87 85 84 82 80 79 77 76 74 73 72 70 69 67 66 65 64 63 63 62 61 61 60 60 59 59 60 60 60 61
77 78 79 78 79 81 80 79 80 81 82 82 82 81 80 78 77 76 75 74 73 72 74 77 78 79 81 83 84 85 88 91 93 94 96 98 100 103 106 108 110 111 112 111 110 109 107 105 103 101 99 97 94 91 88 87 86 85 83 81 79 78 76 74 73 71 70 69 67 66 64 63 62 61 60 60 59 59 58 57 57 57 57 58 58 58
81 83 85 85 86 87 88 87 87 88 88 89 90 90 89 87 85 82 80 79 79 78 77 79 80 80 82 83 85 87 88 91 93 95 98 100 102 104 107 109 110 111 111 111 111 109 107 104 101 99 98 96 93 90 88 86 84 83 82 80 78 76 75 73 71 70 69 67 66 65 63 62 61 59 58 58 57 57 56 55 55 55 55 55 56 56
84 86 87 89 91 92 94 95 96 96 96 97 98 98 98 95 92 88 84 81 81 80 79 80 81 82 83 84 85 87 89 91 94 96 98 100 103 105 107 109 110 111 111 111 110 108 105 102 100 98 97 95 92 89 87 85 83 82 80 79 77 76 74 72 70 69 67 66 65 64 63 61 60 58 57 56 56 55 55 54 53 53 53 53 53 54
85 87 89 91 93 95 97 99 101 103 103 104 104 104 104 102 98 93 89 85 83 82 82 83 84 84 85 86 86 88 90 92 94 96 98 100 102 105 107 109 110 111 111 111 109 107 104 101 99 98 96 93 90 88 86 84 83 81 80 78 76 75 73 72 70 68 67 65 64 63 62 60 59 57 56 55 55 54 53 52 52 51 51 51 52 53
86 87 89 91 94 96 98 99 101 103 105 106 107 107 106 105 102 97 93 90 88 88 87 87 87 87 87 87 88 89 91 92 93 95 98 100 102 104 107 109 111 111 111 110 108 106 103 100 98 97 95 93 90 87 86 84 82 81 79 78 76 75 73 71 70 68 67 65 64 62 61 59 58 57 56 55 54 53 52 51 51 50 50 50 50 51
87 88 89 91 93 94 96 98 100 102 104 105 107 108 108 107 104 101 97 94 92 91 91 91 90 89 89 89 89 90 91 92 93 95 97 99 102 105 107 110 111 111 110 109 108 105 102 99 97 96 94 92 89 87 85 84 82 80 79 77 76 74 73 71 70 68 67 65 63 62 61 59 58 56 55 54 53 52 51 50 50 49 49 49 49 50
88 89 90 92 94 94 96 98 100 102 104 106 107 108 110 110 108 104 99 95 93 93 93 93 92 92 91 90 90 90 91 92 94 95 97 100 102 105 108 109 110 110 110 109 107 104 101 98 97 95 93 91 89 87 85 84 82 80 78 76 75 73 72 71 69 68 66 65 63 62 60 59 57 56 54 53 52 51 49 49 48 48 48 48 48 49
88 90 91 92 95 96 97 98 100 102 105 107 108 110 110 110 109 105 100 96 95 94 94 94 94 94 93 92 91 91 92 93 94 96 98 100 103 105 108 109 110 110 110 109 106 103 100 98 96 95 93 90 88 87 85 83 81 79 77 76 74 72 71 70 69 68 66 65 63 61 60 58 57 55 53 52 51 49 48 47 47 46 46 46 47 48
90 91 92 93 95 97 98 99 100 102 104 107 109 110 111 111 109 106 101 97 96 96 96 96 96 95 94 94 93 93 93 94 95 97 99 101 103 105 108 109 110 110 110 108 106 103 100 98 96 95 93 90 88 87 85 83 81 79 77 75 73 71 70 69 68 67 66 64 63 61 60 58 57 55 53 52 50 49 47 46 45 45 45 44 45 46
91 93 94 95 96 98 99 101 102 103 105 107 109 110 112 112 110 107 102 98 96 96 97 97 97 97 96 96 95 94 94 94 95 97 99 101 104 106 108 109 109 109 109 108 106 103 100 98 97 95 92 90 88 87 85 83 81 79 76 74 72 70 69 68 67 66 65 63 62 60 59 58 56 55 54 52 51 49 47 45 44 44 44 44 44 44
93 94 95 97 98 99 100 102 104 106 107 108 110 111 113 113 111 108 103 99 97 98 98 98 99 99 98 98 97 95 95 95 96 98 99 101 104 106 108 109 109 109 108 107 105 103 100 98 97 95 92 90 88 86 85 83 81 79 76 74 71 69 68 68 67 66 64 63 61 59 58 57 56 54 53 52 50 49 48 46 43 41 41 43 43 43
Wind_Direction
263 259 258 257 258 259 260 261 262 263 264 265 266 267 268 268 269 270 270 270 271 271 272 272 272 272 272 272 273 273 273 273 273 273 273 273 273 274 274 274 274 274 274 274 274 274 274 274 274 274 274 273 273 273 273 273 273 272 272 272 272 272 271 271 271 271 270 270 270 269 269 269 269 268 268 268 267 267 267 267 267 267 267 266 266 266
272 267 263 260 260 260 261 262 263 264 266 267 268 269 270 270 271 271 272 272 272 272 273 273 273 273 273 273 273 273 273 274 274 274 274 274 274 274 274 274 274 274 274 274 274 274 274 274 274 274 274 274 274 274 274 273 273 273 273 273 273 272 272 272 272 271 271 271 271 270 270 270 270 269 269 268 268 268 268 268 268 267 267 267 267 267
277 274 271 267 265 264 263 264 265 266 267 269 270 271 271 272 273 273 273 274 274 274 274 274 275 275 275 275 275 275 275 275 275 276 276 276 276 276 276 276 276 276 276 275 275 275 275 275 275 275 275 274 274 274 274 274 274 274 273 273 273 273 273 272 272 272 272 271 271 271 271 270 270 270 269 269 269 268 268 268 268 268 267 267 267 267
280 278 276 274 272 270 269 269 269 269 270 271 272 273 273 274 275 276 276 276 276 276 276 276 277 277 278 278 278 278 278 277 277 277 277 277 277 277 277 277 277 277 277 277 277 277 276 276 276 276 275 275 275 275 275 274 274 274 274 273 273 273 273 273 272 272 272 271 271 271 271 270 270 270 270 269 269 269 268 268 268 267 267 267 267 266
285 283 281 280 278 277 276 275 275 275 275 275 275 276 277 278 278 279 280 280 280 280 280 280 280 280 281 281 281 281 281 280 280 279 279 279 279 278 278 278 278 278 278 278 278 277 277 277 277 277 276 276 276 276 275 275 275 275 274 274 274 273 273 273 273 272 272 272 271 271 271 271 270 270 270 269 269 269 268 268 268 267 267 267 267 266
289 287 285 284 284 283 282 282 281 281 281 281 281 281 282 282 283 283 283 283 283 283 283 282 282 283 283 283 283 283 283 282 282 282 282 281 281 280 280 279 279 279 278 278 278 278 277 277 277 277 277 277 277 276 276 276 276 275 275 275 275 274 274 274 274 273 273 273 272 272 272 271 271 271 270 270 270 269 269 269 268 268 267 267 267 267
294 292 291 289 289 288 288 287 287 287 287 286 286 286 286 286 287 287 286 286 286 286 286 286 285 285 284 284 284 284 284 283 283 283 283 283 282 282 282 281 281 280 280 279 279 279 279 279 278 278 278 278 277 277 277 277 277 276 276 276 276 276 275 275 275 275 274 274 274 274 273 273 272 272 272 271 271 270 270 269 269 269 268 268 267 267
299 297 296 295 294 293 293 292 292 292 292 292 292 292 292 292 292 292 291 291 291 290 290 289 289 288 287 286 285 285 284 284 284 284 284 283 283 283 282 282 282 282 281 281 281 280 280 280 280 279 279 279 278 278 278 278 277 277 277 277 276 276 276 276 276 275 275 275 274 274 274 274 273 273 273 273 272 272 272 271 270 270 270 269 268 268
304 303 302 301 300 300 299 299 298 298 298 297 297 297 297 296 296 295 294 293 293 292 291 290 289 289 287 286 286 285 284 284 284 283 283 283 283 282 282 282 282 282 281 281 281 281 281 281 280 280 280 279 279 278 278 278 277 277 277 277 276 276 276 276 275 275 275 275 274 274 274 274 273 273 273 273 272 272 272 272 271 271 271 270 270 269
310 309 307 306 305 305 304 303 302 302 301 300 300 299 299 298 297 296 295 295 294 293 291 290 290 289 288 287 286 285 285 284 284 283 283 283 283 283 283 282 282 282 282 282 282 282 282 281 281 281 280 280 280 279 279 279 278 278 277 277 277 276 276 276 275 275 275 275 274 274 274 274 273 273 273 272 272 272 271 271 271 271 270 270 270 270
311 310 310 309 308 307 306 305 305 304 304 304 303 302 301 301 300 299 299 299 298 297 296 295 294 293 291 290 289 289 288 287 286 286 285 285 285 285 285 284 284 284 284 284 283 283 283 283 283 282 282 282 281 281 280 280 280 279 279 278 278 277 277 277 276 276 275 275 275 274 274 274 274 273 273 273 272 272 272 271 271 271 270 270 270 269
313 312 311 309 308 307 307 307 306 306 307 307 307 307 308 309 309 309 308 307 306 305 304 302 302 301 297 295 295 294 293 292 291 290 289 288 288 288 287 287 287 287 286 286 286 285 285 285 284 284 284 283 283 283 282 281 281 280 280 279 279 279 278 278 277 277 276 276 275 275 275 274 274 273 273 273 273 272 272 272 272 271 271 271 270 270
315 313 312 311 310 309 309 309 310 311 313 314 316 318 319 319 319 318 317 315 312 310 309 307 307 304 301 300 300 299 298 296 295 294 293 292 291 291 290 290 290 290 289 289 289 289 288 288 288 287 287 286 286 285 285 284 283 282 282 281 281 280 279 279 278 278 277 277 276 276 275 275 275 274 273 273 273 273 272 272 272 272 271 271 271 270
315 315 314 314 313 314 314 315 317 319 321 323 325 325 324 323 322 321 320 318 315 314 312 311 311 309 306 306 306 304 303 301 300 299 298 298 297 296 296 295 294 294 293 293 293 292 291 290 290 289 289 288 288 287 286 286 285 284 284 283 282 281 281 280 280 279 278 278 277 277 276 276 276 275 274 274 273 273 273 272 272 272 271 271 271 270
316 316 316 316 316 318 319 320 321 322 324 326 326 325 324 324 324 323 322 321 320 319 318 317 317 315 311 310 309 307 306 305 305 304 304 303 303 302 300 299 298 297 296 295 294 293 293 292 292 291 291 290 290 289 289 288 287 287 286 285 284 283 282 281 281 280 279 279 278 278 277 277 276 276 275 275 274 274 274 273 273 273 272 272 271 271
319 319 319 319 320 321 321 321 322 323 324 324 324 323 325 326 327 327 326 326 326 325 323 320 320 319 315 313 312 310 310 309 308 307 306 306 305 304 302 300 299 298 297 297 296 295 295 294 294 293 293 292 291 290 290 289 288 288 287 286 285 285 284 283 282 281 281 280 280 279 278 278 277 277 276 276 275 275 274 274 273 273 273 273 273 272
321 322 322 322 322 322 322 322 322 322 322 323 323 324 326 327 328 329 329 330 331 330 328 324 321 323 322 318 316 314 312 311 310 309 308 307 306 305 303 301 300 300 300 299 298 297 296 295 294 294 293 292 291 290 289 288 288 287 287 286 286 285 284 284 283 282 282 281 281 280 279 279 278 278 277 277 276 275 275 274 273 273 273 272 272 272
323 324 324 323 323 323 323 322 322 321 321 322 324 324 325 326 327 329 330 331 332 332 332 328 322 324 326 322 318 317 315 314 312 311 310 308 307 306 304 303 302 302 301 301 300 298 297 296 294 294 293 293 293 292 292 291 291 290 289 288 287 286 285 284 283 282 282 281 281 280 280 279 278 277 277 276 276 276 275 274 274 273 272 272 272 271
324 325 324 323 323 322 322 322 321 321 321 322 323 323 324 325 325 327 328 329 330 330 333 331 324 324 329 327 323 321 320 318 316 315 313 311 310 308 307 306 305 305 304 303 302 301 300 299 298 297 297 297 297 296 296 295 295 294 293 292 292 291 289 288 287 286 285 284 284 283 282 281 280 279 278 277 277 276 275 275 274 273 273 272 271 271
324 324 323 322 322 321 321 321 321 321 321 321 322 322 323 323 324 325 326 327 328 328 331 333 327 325 329 330 327 326 324 323 321 320 319 317 315 314 313 312 311 310 309 308 308 307 306 305 303 302 301 300 300 299 299 298 297 296 295 295 294 293 292 291 290 289 288 287 286 285 284 284 283 282 281 280 279 278 277 276 275 274 273 273 272 271
323 322 322 321 321 321 321 321 320 320 320 320 321 321 321 322 322 324 325 325 326 327 329 332 328 325 329 332 331 329 328 327 326 325 324 322 320 320 320 318 316 316 315 314 313 312 311 310 308 307 305 303 302 300 299 299 298 298 297 296 295 294 293 291 291 290 290 289 288 286 285 285 284 283 283 282 281 280 279 278 277 276 275 274 274 273
321 321 321 321 321 320 320 320 319 319 320 320 320 320 320 321 321 322 323 324 325 325 327 331 329 325 328 332 332 331 331 330 329 328 327 325 324 324 323 322 320 319 318 318 317 316 315 314 312 311 309 306 304 303 302 301 301 300 299 298 296 295 293 292 291 291 290 290 288 287 286 285 285 284 283 283 282 281 280 279 279 278 277 277 276 275
320 320 320 320 320 319 319 319 319 319 320 320 320 320 319 320 320 320 321 322 323 324 325 328 330 326 326 330 332 331 331 331 330 329 328 327 326 327 326 325 323 322 322 321 320 320 319 317 316 314 313 311 309 308 306 305 304 302 300 298 297 295 293 292 291 291 291 290 288 287 286 285 285 284 284 283 282 281 281 280 280 279 279 278 278 277
321 321 320 320 320 320 319 319 319 319 319 319 320 320 319 320 320 320 320 321 322 323 323 325 328 326 325 328 330 330 331 332 331 330 329 329 329 329 329 327 326 326 325 324 324 323 321 320 318 317 315 313 311 309 307 305 303 301 300 298 296 294 293 292 291 291 290 289 288 287 286 285 285 284 284 283 283 282 282 281 281 280 280 279 279 278
322 321 320 320 320 320 319 319 319 318 318 319 319 320 320 319 319 319 319 319 320 322 321 321 325 326 325 327 330 329 331 332 332 331 330 330 331 332 331 330 329 329 328 327 326 325 323 322 320 318 315 313 310 308 305 303 302 301 299 298 297 296 295 294 292 292 291 290 289 288 287 286 285 284 284 284 283 283 283 282 282 281 281 280 279 279
322 321 320 319 319 319 318 317 318 317 317 318 318 319 319 319 318 318 318 318 319 322 322 320 323 326 325 327 329 329 331 332 332 332 332 332 333 334 333 332 332 331 331 330 329 327 326 325 323 321 319 316 313 311 308 306 304 303 302 301 300 299 297 296 294 293 292 291 290 289 288 287 286 285 285 284 284 284 283 283 282 281 281 280 279 279
323 323 321 320 319 321 320 318 318 317 317 317 318 318 318 318 319 319 319 319 320 323 325 322 323 325 325 326 329 329 330 332 332 333 332 332 334 335 334 333 333 333 333 332 331 330 329 328 326 325 323 321 319 317 314 312 310 309 307 305 303 301 299 297 296 294 293 291 290 289 289 288 287 286 286 285 285 284 283 283 282 282 281 280 280 279
325 324 324 322 320 322 323 321 319 318 318 318 319 319 319 319 321 321 321 321 322 324 327 325 324 324 324 327 330 330 331 332 332 332 332 332 334 335 334 334 334 334 333 333 332 331 330 329 328 327 326 324 322 321 319 317 315 314 312 309 307 305 303 301 299 297 295 293 292 291 290 289 288 287 286 285 284 283 283 282 282 282 281 280 280 280
325 325 325 324 321 321 324 323 321 320 319 320 321 321 321 321 323 323 322 322 322 324 327 326 325 324 324 327 330 330 330 331 332 332 332 333 334 335 334 334 334 334 333 333 333 332 331 331 330 328 327 326 324 323 321 320 318 317 315 313 311 309 307 305 303 301 298 297 295 293 292 290 289 288 286 285 284 284 283 283 282 281 280 280 280 279
327 326 326 326 323 321 324 325 322 321 321 321 323 325 324 323 324 324 323 322 322 324 325 325 324 325 325 327 329 329 330 331 332 332 331 333 334 334 334 334 333 333 333 333 333 333 332 331 330 329 328 326 325 323 322 320 318 317 315 313 311 310 308 307 305 303 301 299 297 296 294 293 291 290 289 287 287 286 285 283 282 281 281 280 280 279
329 328 328 328 325 322 325 326 324 322 321 322 324 326 324 323 324 324 324 322 321 322 325 325 325 325 325 326 328 330 331 332 332 331 331 332 334 333 333 333 333 334 334 334 334 334 333 332 330 329 327 326 324 323 321 319 318 316 315 313 312 311 309 308 307 305 303 301 299 298 297 295 293 293 292 291 289 288 286 284 283 282 281 280 279 279
332 331 330 329 327 325 326 327 325 323 321 322 325 326 324 324 325 326 324 322 320 322 326 327 326 325 324 326 329 331 332 332 331 330 329 331 332 332 333 334 334 335 335 335 334 333 332 331 330 328 327 325 324 322 321 320 318 317 316 315 314 313 312 310 309 307 305 303 302 300 299 297 296 295 294 292 291 289 287 286 284 283 282 281 280 279
335 334 332 331 331 329 328 328 327 324 323 323 326 327 324 324 326 326 325 322 321 323 326 326 325 325 326 327 329 330 331 332 331 329 328 330 332 333 334 335 335 335 335 334 334 333 332 331 330 328 327 326 325 324 323 322 321 320 318 317 316 315 314 312 310 308 306 305 304 302 301 300 299 297 295 293 291 290 288 287 285 284 283 282 282 281
338 337 336 334 334 334 332 331 330 328 326 326 328 327 325 326 327 327 326 323 321 324 326 326 326 326 327 327 328 329 331 332 330 328 328 331 333 334 335 335 335 335 334 334 333 332 332 331 330 329 329 328 328 327 326 324 322 321 320 318 317 316 315 314 312 310 308 307 306 304 303 302 300 298 296 294 292 291 289 288 288 287 286 285 284 283
342 341 340 338 338 338 337 335 334 333 329 328 330 329 328 329 329 329 328 324 322 324 327 327 327 327 327 327 328 329 330 331 330 328 330 332 334 334 335 334 334 334 334 334 334 333 333 333 332 331 331 330 329 327 326 324 323 321 320 319 318 318 317 315 313 312 310 309 307 306 304 302 301 299 297 295 293 292 291 291 290 289 288 287 286 284
346 345 344 343 342 342 341 339 338 337 333 331 333 332 331 331 330 329 330 325 323 326 327 327 326 326 326 327 327 326 327 330 331 331 331 333 334 334 334 334 333 334 335 335 335 335 335 334 333 332 331 330 329 328 326 325 324 323 321 321 320 319 318 317 315 313 312 310 308 306 304 302 301 299 298 296 295 294 293 292 291 290 289 288 287 285
350 349 349 348 347 346 345 343 341 340 336 335 336 335 333 333 330 331 332 328 325 327 328 326 326 325 325 325 325 325 327 330 332 332 331 332 332 332 333 333 334 335 336 337 336 336 335 334 333 332 331 330 330 329 327 326 325 324 323 322 322 321 319 317 316 314 313 311 309 307 305 303 302 300 299 298 297 295 294 293 292 291 290 288 287 286
354 353 353 352 351 349 349 347 345 343 341 340 339 337 336 336 334 334 334 331 328 328 327 326 326 325 324 325 325 326 328 331 332 331 330 331 331 332 333 334 335 336 337 337 337 336 335 334 333 332 331 331 331 330 329 328 327 326 325 324 322 321 320 318 317 316 314 313 311 309 307 305 303 302 301 299 298 297 296 294 293 292 291 289 287 286
357 356 356 355 354 353 353 352 350 348 347 345 344 342 340 339 336 335 334 332 330 329 328 327 326 326 326 327 328 329 329 330 331 330 330 331 332 333 335 336 337 338 338 338 337 336 336 334 333 333 333 333 332 331 330 329 328 327 326 324 323 322 320 319 318 317 316 314 313 311 309 307 305 304 302 301 300 298 297 296 294 293 291 290 288 287
358 357 357 357 356 355 355 355 353 352 351 350 348 345 343 341 338 336 334 333 331 330 329 328 328 329 329 329 330 330 330 330 331 332 332 334 335 336 337 337 338 339 339 338 337 337 336 336 335 335 334 334 333 332 331 330 329 328 327 325 324 323 322 321 320 318 317 316 315 313 311 309 307 305 304 302 301 299 298 297 295 294 292 291 290 289
358 357 357 357 357 356 355 356 355 354 353 352 351 349 346 344 342 339 337 334 333 332 331 330 330 331 330 330 330 331 331 331 332 333 334 336 337 337 337 338 338 339 339 338 338 338 337 337 336 335 334 334 333 333 332 331 330 329 327 326 325 324 323 322 321 320 319 318 316 314 312 310 309 307 306 304 303 301 299 298 297 295 294 293 292 290
358 358 357 357 357 356 355 355 355 355 354 354 353 351 349 348 346 343 341 338 336 334 333 331 331 331 330 330 331 331 332 332 333 334 335 336 337 337 337 338 338 339 339 339 339 339 338 337 336 335 335 334 334 333 333 332 331 329 328 327 327 326 325 324 324 322 321 320 318 316 314 313 311 310 308 306 304 303 301 300 298 297 296 295 293 292
357 357 356 356 356 356 355 355 354 354 355 354 354 353 351 349 348 346 344 342 338 336 334 333 332 331 331 331 331 331 332 333 334 335 336 336 337 337 337 337 338 339 340 340 339 339 338 337 336 336 336 335 335 334 333 333 332 331 330 329 328 328 327 327 326 325 323 322 320 318 317 315 314 312 310 308 306 305 303 302 300 299 297 296 294 292
356 356 356 355 355 355 354 354 354 353 354 354 354 353 352 350 349 347 345 344 342 339 338 336 334 333 332 332 332 332 333 334 335 335 336 336 337 337 337 337 338 340 340 340 339 339 338 338 337 337 337 336 335 335 335 334 333 332 331 331 330 329 329 328 328 327 326 324 323 321 319 318 316 314 312 311 309 307 306 305 303 301 299 297 296 294
355 355 355 354 354 354 353 353 353 352 353 353 353 352 351 350 349 347 346 345 344 343 341 339 337 335 334 334 333 333 334 334 335 335 336 336 336 336 337 338 339 340 340 340 340 339 339 338 338 338 338 337 337 336 336 336 335 334 333 332 332 331 331 330 330 329 328 327 325 324 322 320 318 316 315 313 312 310 309 307 306 304 302 300 298 296
354 354 354 353 353 353 352 352 352 351 351 352 352 351 351 350 349 348 347 346 345 344 342 341 340 338 337 336 335 334 334 334 335 335 336 336 336 337 338 339 340 340 341 340 340 340 340 339 339 339 339 338 338 338 338 337 336 336 335 334 333 333 332 332 332 331 330 329 328 326 325 323 321 319 317 316 314 313 311 310 308 306 304 302 300 298
352 352 352 351 351 352 351 351 351 350 350 351 351 350 350 349 349 348 347 345 345 344 343 342 341 340 339 337 336 335 334 335 335 336 336 337 337 338 338 339 340 341 341 341 341 341 340 340 340 340 340 340 339 339 339 338 338 337 336 335 334 334 334 333 333 333 332 331 330 328 327 326 324 322 320 318 316 315 313 312 310 308 306 304 302 300
350 350 351 350 349 350 350 350 350 350 349 349 350 350 350 349 348 347 346 345 344 344 343 343 342 341 340 338 337 336 336 335 336 336 337 338 338 338 338 339 340 342 342 342 341 341 341 341 342 342 341 341 341 340 340 340 339 339 338 337 336 335 335 335 335 335 334 333 331 330 329 328 327 325 323 321 319 317 316 314 312 311 309 307 305 303
348 348 349 349 348 348 348 348 349 349 349 349 349 349 349 348 347 347 346 345 344 344 344 343 343 342 341 340 338 337 336 336 336 337 338 338 338 338 339 340 341 342 342 342 342 342 342 342 343 343 343 342 342 341 341 341 340 340 339 339 338 337 337 337 337 336 336 335 333 332 331 330 329 327 326 324 322 320 319 317 315 313 311 309 307 305
346 346 347 347 347 347 347 347 347 348 348 348 348 348 348 347 347 346 345 344 344 344 344 343 343 342 341 340 339 338 337 337 337 338 339 339 338 338 339 340 342 343 343 343 343 343 343 343 344 344 344 343 343 343 342 342 341 341 341 340 339 339 339 339 339 338 338 336 335 334 334 333 332 330 329 327 325 323 321 320 319 317 315 312 310 308
344 344 345 346 346 346 346 346 346 346 347 347 347 347 347 346 346 345 345 344 344 344 344 343 343 343 342 341 340 339 338 338 338 339 339 339 339 339 340 341 343 344 344 344 344 343 344 344 344 345 345 345 344 343 343 342 342 342 342 342 341 341 341 341 341 340 339 339 338 337 336 335 334 333 331 330 328 326 324 322 321 320 318 316 314 312